Palacios, TX

2:12 PM CST on January 19, 2018 (GMT -0600)
Palacios Municipal

Weather History for KPSX - September, 2014

Change the Weather History Date:

Tuesday, September 23, 2014

  Actual Average Record
Temperature  
Mean Temperature 77 °F -  
Max Temperature 87 °F 85 °F 98 °F (2005)
Min Temperature 68 °F 70 °F 52 °F (1975)
Cooling Degree Days 12    
Growing Degree Days 27 (Base 50)    
Moisture  
Dew Point 64 °F    
Average Humidity 69    
Maximum Humidity 91    
Minimum Humidity 43    
Precipitation  
Precipitation 0.00 in - - ()
Sea Level Pressure  
Sea Level Pressure 30.06 in    
Wind  
Wind Speed 7 mph (NE)    
Max Wind Speed 13 mph    
Max Gust Speed 17 mph    
Visibility 10 miles    
Events      
Averages and records for this station are not official NWS values.
T = Trace of Precipitation, MM = Missing Value Source: NWS Daily Summary

Daily Weather History Graph

Daily Weather History Graph

Search for Another Location

Airport or City:

Trip Planner

Search our weather history database for the weather conditions in past years. The results will help you decide how hot, cold, wet, or windy it might be!

Date:

Astronomy

Sep. 23, 2014 Rise Set
Actual Time 7:13 AM CDT 7:20 PM CDT
Civil Twilight 6:50 AM CDT 7:43 PM CDT
Nautical Twilight 6:22 AM CDT 8:11 PM CDT
Astronomical Twilight 5:55 AM CDT 8:38 PM CDT
Moon 6:40 AM CDT (9/23) 7:01 PM CDT (9/23)
Length of Visible Light 12h 53m
Length of Day
12h 06m
Waning Crescent, 0% of the Moon is Illuminated
Sep 23
Waning Crescent
Sep 24
New
Oct 1
First Quarter
Oct 8
Full
Oct 15
Last Quarter

Hourly Weather History & Observations

Time (CDT) Temp. Heat Index Dew Point Humidity Pressure Visibility Wind Dir Wind Speed Gust Speed Precip Events Conditions
12:53 AM 75.0 °F - 72.0 °F 90% 30.05 in 7.0 mi North 3.5 mph - N/A   Clear
1:53 AM 73.9 °F - 71.1 °F 91% 30.05 in 7.0 mi NE 4.6 mph - N/A   Clear
2:53 AM 73.0 °F - 70.0 °F 90% 30.06 in 10.0 mi NE 5.8 mph - N/A   Clear
3:53 AM 72.0 °F - 69.1 °F 91% 30.04 in 10.0 mi NE 8.1 mph - N/A   Clear
4:53 AM 71.1 °F - 66.9 °F 87% 30.04 in 10.0 mi NE 8.1 mph - N/A   Clear
5:53 AM 70.0 °F - 64.9 °F 84% 30.05 in 10.0 mi NE 9.2 mph - N/A   Clear
6:53 AM 69.1 °F - 64.9 °F 87% 30.06 in 10.0 mi NNE 8.1 mph - N/A   Clear
7:53 AM 68.0 °F - 63.0 °F 84% 30.07 in 10.0 mi NE 8.1 mph - N/A   Unknown
8:53 AM 72.0 °F - 63.0 °F 73% 30.09 in 10.0 mi NE 12.7 mph - N/A   Unknown
9:53 AM 75.9 °F - 63.0 °F 64% 30.10 in 10.0 mi NE 11.5 mph - N/A   Clear
10:53 AM 80.1 °F 82.1 °F 66.0 °F 62% 30.10 in 10.0 mi ENE 9.2 mph - N/A   Clear
11:53 AM 82.0 °F 84.5 °F 66.9 °F 60% 30.11 in 10.0 mi NE 9.2 mph - N/A   Unknown
12:53 PM 82.9 °F 84.4 °F 64.0 °F 53% 30.10 in 10.0 mi Variable 3.5 mph - N/A   Clear
1:53 PM 84.0 °F 85.8 °F 64.9 °F 53% 30.09 in 10.0 mi Variable 4.6 mph - N/A   Scattered Clouds
2:53 PM 86.0 °F 87.3 °F 64.0 °F 48% 30.06 in 10.0 mi Variable 6.9 mph - N/A   Clear
3:53 PM 84.0 °F 84.9 °F 63.0 °F 49% 30.03 in 10.0 mi NE 9.2 mph - N/A   Clear
4:53 PM 84.9 °F 85.0 °F 61.0 °F 44% 30.02 in 10.0 mi North 10.4 mph 17.3 mph N/A   Clear
5:53 PM 84.0 °F 83.8 °F 59.0 °F 43% 30.02 in 10.0 mi NNE 9.2 mph - N/A   Clear
6:53 PM 81.0 °F 81.9 °F 62.1 °F 52% 30.02 in 10.0 mi ENE 4.6 mph - N/A   Clear
7:53 PM 75.0 °F - 61.0 °F 62% 30.02 in 10.0 mi ENE 6.9 mph - N/A   Clear
8:53 PM 72.0 °F - 61.0 °F 68% 30.04 in 10.0 mi ENE 6.9 mph - N/A   Clear
9:53 PM 70.0 °F - 61.0 °F 73% 30.05 in 10.0 mi NE 8.1 mph - N/A   Unknown
10:53 PM 68.0 °F - 60.1 °F 76% 30.05 in 10.0 mi NE 6.9 mph - N/A   Unknown
11:53 PM 68.0 °F - 60.1 °F 76% 30.06 in 10.0 mi ENE 4.6 mph - N/A   Unknown